Regional Weather Roundup
Issued by NWS

Home | Current Version | Previous Version | Text Only | Print | Product List | Glossary On
Versions: 1 2 3 4 5 6 7 8 9 10 11 12 13 14 15 16 17 18 19 20 21 22 23 24 25 26 27 28 29 30 31 32 33 34 35 36 37 38 39 40 41 42 43 44 45 46 47 48 49 50
000
ASUS43 KBIS 181510
RWRND

NORTH DAKOTA REGIONAL WEATHER ROUNDUP
NATIONAL WEATHER SERVICE BISMARCK ND
1000 AM CDT WED OCT 18 2017

NOTE: "FAIR" INDICATES FEW OR NO CLOUDS BELOW 12,000 FEET WITH NO
SIGNIFICANT WEATHER AND/OR OBSTRUCTIONS TO VISIBILITY.


NDZ001>003-009>011-017-181600-
NORTHWEST NORTH DAKOTA

CITY           SKY/WX    TMP DP  RH WIND       PRES   REMARKS
WILLISTON      SUNNY     46  22  38 W17       29.94R
MINOT          SUNNY     49  20  31 W26G35    29.83R
MINOT AFB      SUNNY     48  18  30 W23G36    29.81R
$$

NDZ018>021-031>035-040>046-181600-
SOUTHWEST NORTH DAKOTA

CITY           SKY/WX    TMP DP  RH WIND       PRES   REMARKS
BISMARCK       CLOUDY    52  29  41 NW16G25   29.95R
DICKINSON      CLOUDY    46  25  43 W12       29.97R
GARRISON         N/A     48  21  34 W21G28    29.89R
HETTINGER ARPT CLOUDY    45  26  47 NW13      30.02R
$$

NDZ004>008-012>016-024-026-027-054-181600-
NORTHEAST NORTH DAKOTA

CITY           SKY/WX    TMP DP  RH WIND       PRES   REMARKS
GRAND FORKS    CLOUDY    55  34  45 W17G30    29.74R
GRND FRKS AFB  CLOUDY    53  31  43 W16G25    29.75R
DEVILS LAKE    CLOUDY    49  29  46 W25G32    29.78R
$$

NDZ022-023-025-028>030-036>039-047>053-181600-
SOUTHEAST NORTH DAKOTA

CITY           SKY/WX    TMP DP  RH WIND       PRES   REMARKS
FARGO          MOSUNNY   57  38  48 NW17G24   29.79R
JAMESTOWN      CLOUDY    52  30  43 NW21G28   29.85R
$$




USA.gov is the U.S. government's official web portal to all federal, state and local government web resources and services.